Location: Unspecified
(0.0000°N, 0.0000°E)
Time: 20:39:05
(UTC+00:00)

Tiros 1 despin weight - Pass Details

Date: 26 May 2022
Orbit: 591 x 639 km, 48.2° (Epoch: 25 June)

Event Time Altitude Azimuth Distance (km) Brightness Sun altitude
Rises 13:57:43 0° 199° (SSW) 2,932 ? 53.7°
Reaches altitude 10° 14:00:23 10° 185° (S) 2,018 ? 53.2°
Maximum altitude 14:04:13 25° 130° (SE) 1,274 ? 52.4°
Drops below altitude 10° 14:08:00 10° 74° (ENE) 1,995 ? 51.7°
Sets 14:10:37 0° 61° (ENE) 2,891 ? 51.1°
